Location: Pcim
(49.7500°N, 19.9670°E)
Time: 14:30:07
(UTC+02:00)

EO-79 - Pass Details

Date: 01 May 2024
Orbit: 528 x 544 km, 98.1° (Epoch: 12 May)

Event Time Altitude Azimuth Distance (km) Brightness Sun altitude
Rises 03:12:36 0° 20° (NNE) 2,792 ? -16.6°
Reaches altitude 10° 03:14:52 10° 28° (NNE) 1,894 ? -16.4°
Maximum altitude 03:18:43 39° 98° (E) 882 ? -16.0°
Enters shadow 03:22:15 12° 166° (SSE) 1,764 ? -15.6°
